XMM-NEWTON

Last updated on Wed Nov 20 2024 00:03:23 GMT+0000 (Coordinated Universal Time)

1 25989U 99066A 24325.97495820 -.00000029 00000+0 00000+0 0 9993 2 25989 67.1684 290.6688 4999037 74.7393 0.2538 0.50139139 20135
UTC large
Height (km)
Speed (km/s)
/
Latitude / Longitude
Inclination (degrees)
Orbital Period (minutes)
Azimuth
Elevation
Range (km)
Doppler Factor

Next 0 passes for location: London (51.5072 / 0.1276)

Sorry there are no passes over London.